Hourly Weather Lukvytsya

Today, 18 May, Tuesday

Time Temperature Precipitation Wind Pressure Humidity
00:00 +14°C° 0 mm 1 mps 699 mmHg 81%
01:00 +13°C° 0 mm 2 mps 698 mmHg 85%
02:00 +10°C° 0 mm 0 mps 698 mmHg 98%
03:00 +11°C° 0 mm 1 mps 698 mmHg 92%
04:00 +11°C° 0 mm 1 mps 698 mmHg 90%
05:00 +10°C° 0 mm 2 mps 698 mmHg 95%
06:00 +11°C° 0 mm 1 mps 698 mmHg 95%
07:00 +10°C° 0 mm 2 mps 698 mmHg 100%
08:00 +10°C° 0 mm 2 mps 698 mmHg 100%
09:00 +12°C° 0.1 mm 2 mps 699 mmHg 99%
10:00 +10°C° 1.6 mm 4 mps 699 mmHg 100%
11:00 +11°C° 0.6 mm 3 mps 699 mmHg 100%
12:00 +10°C° 4.4 mm 3 mps 699 mmHg 100%
13:00 +11°C° 2.3 mm 3 mps 699 mmHg 100%
14:00 +11°C° 0 mm 3 mps 700 mmHg 90%
15:00 +10°C° 0.1 mm 5 mps 700 mmHg 95%
16:00 +10°C° 1.1 mm 5 mps 699 mmHg 100%
17:00 +10°C° 0.9 mm 5 mps 700 mmHg 100%
18:00 +9°C° 1 mm 6 mps 700 mmHg 97%
19:00 +9°C° 0 mm 6 mps 700 mmHg 96%
20:00 +9°C° 0 mm 6 mps 701 mmHg 98%
21:00 +9°C° 0 mm 7 mps 700 mmHg 97%
22:00 +8°C° 0 mm 6 mps 701 mmHg 98%
23:00 +8°C° 0 mm 6 mps 701 mmHg 100%

Tomorrow, 19 May, Wednesday

Time Temperature Precipitation Wind Pressure Humidity
00:00 +8°C° 0 mm 6 mps 701 mmHg 100%
01:00 +8°C° 0 mm 6 mps 701 mmHg 98%
02:00 +8°C° 0 mm 6 mps 702 mmHg 98%
03:00 +8°C° 0 mm 6 mps 702 mmHg 98%
04:00 +8°C° 0 mm 5 mps 702 mmHg 98%
05:00 +7°C° 0 mm 5 mps 702 mmHg 99%
06:00 +8°C° 0 mm 5 mps 702 mmHg 100%
07:00 +9°C° 0 mm 5 mps 703 mmHg 98%
08:00 +10°C° 0 mm 6 mps 703 mmHg 95%
09:00 +11°C° 0 mm 6 mps 703 mmHg 94%
10:00 +13°C° 0 mm 5 mps 704 mmHg 94%
11:00 +13°C° 0 mm 5 mps 704 mmHg 92%
12:00 +12°C° 0.3 mm 5 mps 704 mmHg 96%
13:00 +14°C° 0.1 mm 5 mps 704 mmHg 86%
14:00 +15°C° 0 mm 5 mps 704 mmHg 83%
15:00 +17°C° 0 mm 4 mps 704 mmHg 82%
16:00 +17°C° 0 mm 4 mps 704 mmHg 81%
17:00 +17°C° 0 mm 3 mps 704 mmHg 81%
18:00 +15°C° 0 mm 4 mps 703 mmHg 87%
19:00 +15°C° 0 mm 2 mps 703 mmHg 92%
20:00 +14°C° 0 mm 2 mps 703 mmHg 98%
21:00 +13°C° 0 mm 1 mps 703 mmHg 100%
22:00 +12°C° 0 mm 2 mps 703 mmHg 100%
23:00 +12°C° 0 mm 2 mps 703 mmHg 100%

Day after tomorrow, 20 May, Thursday

Time Temperature Precipitation Wind Pressure Humidity
00:00 +10°C° 0 mm 2 mps 703 mmHg 100%
01:00 +10°C° 0 mm 2 mps 703 mmHg 100%
02:00 +10°C° 0 mm 2 mps 702 mmHg 100%
03:00 +10°C° 0 mm 2 mps 702 mmHg 100%
04:00 +10°C° 0.3 mm 3 mps 702 mmHg 100%
05:00 +9°C° 0 mm 3 mps 702 mmHg 100%
06:00 +9°C° 0 mm 3 mps 702 mmHg 100%
07:00 +9°C° 0 mm 3 mps 703 mmHg 100%
08:00 +9°C° 0 mm 3 mps 703 mmHg 100%
09:00 +8°C° 0 mm 4 mps 703 mmHg 100%
10:00 +8°C° 0 mm 4 mps 703 mmHg 100%
11:00 +8°C° 0 mm 5 mps 703 mmHg 100%
12:00 +8°C° 0 mm 5 mps 703 mmHg 100%
13:00 +8°C° 0 mm 4 mps 703 mmHg 100%
14:00 +10°C° 0.8 mm 3 mps 703 mmHg 100%
15:00 +11°C° 2 mm 6 mps 704 mmHg 97%
16:00 +11°C° 0 mm 6 mps 704 mmHg 93%
17:00 +11°C° 0 mm 6 mps 704 mmHg 94%
18:00 +10°C° 1 mm 7 mps 705 mmHg 100%
19:00 +10°C° 0 mm 6 mps 705 mmHg 100%
20:00 +10°C° 0 mm 5 mps 706 mmHg 100%
21:00 +9°C° 0 mm 5 mps 706 mmHg 100%
22:00 +9°C° 0.1 mm 5 mps 706 mmHg 100%
23:00 +10°C° 0 mm 4 mps 707 mmHg 100%

21 May, Friday

Time Temperature Precipitation Wind Pressure Humidity
00:00 +10°C° 0 mm 4 mps 707 mmHg 100%
01:00 +10°C° 0 mm 4 mps 707 mmHg 100%
02:00 +8°C° 0 mm 4 mps 708 mmHg 100%
03:00 +8°C° 0 mm 4 mps 708 mmHg 100%
04:00 +8°C° 0 mm 4 mps 708 mmHg 100%
05:00 +9°C° 0 mm 3 mps 709 mmHg 100%
06:00 +8°C° 0 mm 3 mps 709 mmHg 100%
07:00 +8°C° 0 mm 3 mps 709 mmHg 100%
08:00 +9°C° 0 mm 3 mps 709 mmHg 100%
09:00 +10°C° 0 mm 2 mps 710 mmHg 100%
10:00 +12°C° 0 mm 2 mps 710 mmHg 93%
11:00 +13°C° 0 mm 2 mps 710 mmHg 93%
12:00 +13°C° 0 mm 3 mps 711 mmHg 88%
13:00 +14°C° 0 mm 3 mps 711 mmHg 80%
14:00 +14°C° 0 mm 3 mps 711 mmHg 82%
15:00 +14°C° 0 mm 3 mps 711 mmHg 84%
16:00 +15°C° 0.1 mm 2 mps 710 mmHg 86%
17:00 +15°C° 1.1 mm 1 mps 710 mmHg 92%
18:00 +14°C° 0.5 mm 2 mps 710 mmHg 93%
19:00 +14°C° 1 mm 1 mps 710 mmHg 95%
20:00 +12°C° 0.1 mm 0 mps 710 mmHg 96%
21:00 +13°C° 0 mm 1 mps 710 mmHg 92%
22:00 +13°C° 0 mm 1 mps 710 mmHg 88%
23:00 +12°C° 0 mm 2 mps 710 mmHg 91%

22 May, Saturday

Time Temperature Precipitation Wind Pressure Humidity
00:00 +10°C° 0 mm 2 mps 709 mmHg 92%
01:00 +10°C° 0 mm 2 mps 709 mmHg 85%
02:00 +10°C° 0 mm 2 mps 709 mmHg 74%
03:00 +12°C° 0 mm 1 mps 709 mmHg 69%
04:00 +11°C° 0 mm 1 mps 709 mmHg 67%
05:00 +12°C° 0 mm 1 mps 709 mmHg 67%
06:00 +12°C° 0 mm 1 mps 708 mmHg 71%
07:00 +12°C° 0 mm 1 mps 709 mmHg 78%
08:00 +14°C° 0 mm 1 mps 709 mmHg 85%
09:00 +16°C° 0 mm 1 mps 709 mmHg 82%
10:00 +17°C° 0 mm 2 mps 709 mmHg 77%
11:00 +18°C° 0 mm 2 mps 709 mmHg 76%
12:00 +18°C° 0 mm 2 mps 709 mmHg 72%
13:00 +18°C° 0 mm 3 mps 709 mmHg 69%
14:00 +19°C° 0 mm 3 mps 709 mmHg 68%
15:00 +19°C° 0 mm 3 mps 708 mmHg 68%
16:00 +19°C° 0 mm 4 mps 707 mmHg 68%
17:00 +19°C° 0 mm 4 mps 707 mmHg 72%
18:00 +18°C° 0 mm 3 mps 706 mmHg 75%
19:00 +17°C° 0 mm 2 mps 706 mmHg 81%
20:00 +16°C° 0 mm 1 mps 705 mmHg 83%
21:00 +16°C° 0 mm 2 mps 706 mmHg 85%
22:00 +15°C° 0 mm 2 mps 705 mmHg 86%
23:00 +15°C° 0 mm 2 mps 705 mmHg 86%

23 May, Sunday

Time Temperature Precipitation Wind Pressure Humidity
00:00 +14°C° 0 mm 3 mps 704 mmHg 88%
01:00 +13°C° 0 mm 3 mps 703 mmHg 86%
02:00 +13°C° 0 mm 4 mps 702 mmHg 91%
03:00 +13°C° 0 mm 4 mps 702 mmHg 90%
04:00 +9°C° 0.8 mm 6 mps 703 mmHg 100%
05:00 +9°C° 1.3 mm 6 mps 704 mmHg 99%
06:00 +8°C° 0 mm 5 mps 704 mmHg 97%
07:00 +10°C° 0 mm 5 mps 705 mmHg 91%
08:00 +12°C° 0 mm 5 mps 706 mmHg 89%
09:00 +13°C° 0 mm 5 mps 706 mmHg 86%
10:00 +13°C° 0 mm 5 mps 707 mmHg 83%
11:00 +14°C° 0 mm 6 mps 707 mmHg 78%
12:00 +15°C° 0 mm 6 mps 708 mmHg 76%
13:00 +16°C° 0 mm 6 mps 707 mmHg 72%
14:00 +16°C° 0 mm 5 mps 707 mmHg 76%
15:00 +15°C° 0 mm 6 mps 707 mmHg 78%
16:00 +15°C° 0 mm 6 mps 707 mmHg 78%
17:00 +14°C° 0 mm 6 mps 707 mmHg 77%
18:00 +14°C° 0 mm 4 mps 707 mmHg 82%
19:00 +14°C° 0 mm 4 mps 708 mmHg 84%
20:00 +8°C° 0.1 mm 4 mps 708 mmHg 100%
21:00 +10°C° 3.6 mm 1 mps 709 mmHg 100%
22:00 +9°C° 0.2 mm 2 mps 709 mmHg 100%
23:00 +10°C° 0 mm 3 mps 710 mmHg 97%
Show more

We Need Your Consent

Meteoprog and our Service Providers may store and access personal data such as cookies, device identifiers or other similar technologies on your device and process such data to personalise content and ads, as well as provide social media features and to analyse the traffic.

  • Store and/or access information on your device

    Cookies, device identifiers or other information can be stored or accessed on your device for the purposes indicated above.

  • Personalised ads and content, ad and content measurement, audience insights, and products development

    Ads and content can be personalised based on a profile. More data can be added to better personalise ads and content. Ad and content performance can be measured. Insights about the audience who saw the ads and content can be derived. Such data can be used to develop or improve user’s experience, systems and software.

By clicking ‘I Agree’ you will allow the use of indicated cookies, device identifiers, web beacons or other similar technologies. Your settings can be changed in the browser on your device.

For certain purposes, legitimate interests may be relied on, rather than consent. You can read more about this in our Privacy and Cookie Policy.